This demonstration page uses our WeatherBlox Daily Observations layout. Learn more.

Left ArrowRight Arrow

34.16533, -84.80231

Hourly Observations for October 31, 2020

Temp ( °F °C ) Dew Point ( °F °C ) Humidity (%) Winds ( mph kmh ) Pressure ( in mb ) Visibility ( mi km ) Precip ( " mm )
12:53 am 00:53 Clear 45 7.2 40 4.4 83 83 Calm 30.24 1024 10 16 0.00 0.00
1:53 am 01:53 Clear 44 6.7 40 4.4 85 85 Calm 30.24 1024 10 16 0.00 0.00
2:53 am 02:53 Clear 42 5.6 39 3.9 89 89 Calm 30.26 1025 10 16 0.00 0.00
3:53 am 03:53 Clear 42 5.6 39 3.9 89 89 Calm 30.27 1025 10 16 0.00 0.00
4:53 am 04:53 Clear 42 5.6 39 3.9 89 89 Calm 30.27 1025 10 16 0.00 0.00
5:53 am 05:53 Clear 41 5 38 3.3 89 89 Calm 30.29 1026 9 14 0.00 0.00
6:53 am 06:53 Clear 40 4.4 38 3.3 93 93 Calm 30.32 1027 9 14 0.00 0.00
7:53 am 07:53 Clear 40 4.4 38 3.3 93 93 Calm 30.34 1028 9 14 0.00 0.00
8:53 am 08:53 Sunny 46 7.8 42 5.6 86 86 E 3 6 30.35 1028 10 16 0.00 0.00
9:53 am 09:53 Sunny 51 10.6 41 5 69 69 E 9 15 30.37 1028 10 16 0.00 0.00
10:53 am 10:53 Sunny 55 12.8 37 2.8 51 51 E 10 17 30.37 1029 10 16 0.00 0.00
11:53 am 11:53 Sunny 58 14.4 38 3.3 48 48 ESE 13 20 30.37 1028 10 16 0.00 0.00
12:53 pm 12:53 Sunny 61 16.1 39 3.9 44 44 VRB 7 11 30.35 1028 10 16 0.00 0.00
1:53 pm 13:53 Sunny 64 17.8 41 5 43 43 ENE 9 15 30.31 1026 10 16 0.00 0.00
2:53 pm 14:53 Sunny 66 18.9 42 5.6 42 42 ESE 9 15 30.28 1025 10 16 0.00 0.00
3:53 pm 15:53 Sunny 66 18.9 43 6.1 43 43 E 8 13 30.26 1025 10 16 0.00 0.00
4:53 pm 16:53 Sunny 66 18.9 43 6.1 43 43 E 7 11 30.25 1025 10 16 0.00 0.00
5:53 pm 17:53 Sunny 65 18.3 45 7.2 49 49 E 5 7 30.25 1024 10 16 0.00 0.00
6:53 pm 18:53 Clear 57 13.9 48 8.9 72 72 Calm 30.24 1024 10 16 0.00 0.00
7:53 pm 19:53 Clear 58 14.4 47 8.3 67 67 Calm 30.24 1024 10 16 0.00 0.00
8:53 pm 20:53 Clear 58 14.4 47 8.3 67 67 VRB 3 6 30.25 1024 10 16 0.00 0.00
9:26 pm 21:26 Mostly Cloudy 59 15 47 8.3 64 64 VRB 3 6 30.27 1025 10 16 0.00 0.00
9:53 pm 21:53 Cloudy 59 15 47 8.3 64 64 VRB 3 6 30.25 1024 10 16 0.00 0.00
10:53 pm 22:53 Cloudy 60 15.6 47 8.3 62 62 E 6 9 30.26 1025 10 16 0.00 0.00
11:53 pm 23:53 Cloudy 60 15.6 48 8.9 65 65 VRB 5 7 30.25 1025 10 16 0.00 0.00

Powered by AerisWeather